Year,Month,Day,Hour,Minute,Value (Times are PST for temperature in C)
2019,03,30,00,00,7.20
2019,03,30,00,01,7.20
2019,03,30,00,02,7.20
2019,03,30,00,03,7.20
2019,03,30,00,04,7.20
2019,03,30,00,05,7.20
2019,03,30,00,06,7.20
2019,03,30,00,07,7.20
2019,03,30,00,08,7.20
2019,03,30,00,09,7.20
2019,03,30,00,10,7.20
2019,03,30,00,11,7.20
2019,03,30,00,12,7.20
2019,03,30,00,13,7.20
2019,03,30,00,14,7.20
2019,03,30,00,15,7.20
2019,03,30,00,16,7.20
2019,03,30,00,17,7.30
2019,03,30,00,18,7.40
2019,03,30,00,19,7.50
2019,03,30,00,20,7.60
2019,03,30,00,21,7.60
2019,03,30,00,22,7.70
2019,03,30,00,23,7.70
2019,03,30,00,24,7.70
2019,03,30,00,25,7.70
2019,03,30,00,26,7.70
2019,03,30,00,27,7.70
2019,03,30,00,28,7.70
2019,03,30,00,29,7.80
2019,03,30,00,30,7.80
2019,03,30,00,31,7.90
2019,03,30,00,32,7.90
2019,03,30,00,33,7.90
2019,03,30,00,34,8.00
2019,03,30,00,35,8.00
2019,03,30,00,36,8.00
2019,03,30,00,37,8.00
2019,03,30,00,38,8.00
2019,03,30,00,39,7.90
2019,03,30,00,40,7.90
2019,03,30,00,41,7.90
2019,03,30,00,42,7.90
2019,03,30,00,43,7.90
2019,03,30,00,44,7.80
2019,03,30,00,45,7.80
2019,03,30,00,46,7.80
2019,03,30,00,47,7.80
2019,03,30,00,48,7.80
2019,03,30,00,49,7.80
2019,03,30,00,50,7.80
2019,03,30,00,51,7.80
2019,03,30,00,52,7.80
2019,03,30,00,53,7.80
2019,03,30,00,54,7.80
2019,03,30,00,55,7.80
2019,03,30,00,56,7.80
2019,03,30,00,57,7.80
2019,03,30,00,58,7.80
2019,03,30,00,59,7.80
2019,03,30,01,00,7.80
2019,03,30,01,01,7.80
2019,03,30,01,02,7.80
2019,03,30,01,03,7.80
2019,03,30,01,04,7.90
2019,03,30,01,05,7.90
2019,03,30,01,06,7.90
2019,03,30,01,07,7.80
2019,03,30,01,08,7.80
2019,03,30,01,09,7.80
2019,03,30,01,10,7.80
2019,03,30,01,11,7.80
2019,03,30,01,12,7.80
2019,03,30,01,13,7.80
2019,03,30,01,14,7.80
2019,03,30,01,15,7.80
2019,03,30,01,16,7.80
2019,03,30,01,17,7.80
2019,03,30,01,18,7.80
2019,03,30,01,19,7.80
2019,03,30,01,20,7.80
2019,03,30,01,21,7.80
2019,03,30,01,22,7.80
2019,03,30,01,23,7.80
2019,03,30,01,24,7.70
2019,03,30,01,25,7.70
2019,03,30,01,26,7.60
2019,03,30,01,27,7.50
2019,03,30,01,28,7.50
2019,03,30,01,29,7.40
2019,03,30,01,30,7.30
2019,03,30,01,31,7.30
2019,03,30,01,32,7.20
2019,03,30,01,33,7.10
2019,03,30,01,34,7.10
2019,03,30,01,35,7.00
2019,03,30,01,36,6.90
2019,03,30,01,37,6.90
2019,03,30,01,38,6.80
2019,03,30,01,39,6.80
2019,03,30,01,40,6.80
2019,03,30,01,41,6.70
2019,03,30,01,42,6.70
2019,03,30,01,43,6.60
2019,03,30,01,44,6.60
2019,03,30,01,45,6.60
2019,03,30,01,46,6.70
2019,03,30,01,47,6.70
2019,03,30,01,48,6.70
2019,03,30,01,49,6.80
2019,03,30,01,50,6.80
2019,03,30,01,51,6.80
2019,03,30,01,52,6.80
2019,03,30,01,53,6.70
2019,03,30,01,54,6.70
2019,03,30,01,55,6.70
2019,03,30,01,56,6.60
2019,03,30,01,57,6.60
2019,03,30,01,58,6.60
2019,03,30,01,59,6.50
2019,03,30,02,00,6.50
2019,03,30,02,01,6.50
2019,03,30,02,02,6.40
2019,03,30,02,03,6.50
2019,03,30,02,04,6.50
2019,03,30,02,05,6.50
2019,03,30,02,06,6.60
2019,03,30,02,07,6.80
2019,03,30,02,08,6.90
2019,03,30,02,09,7.10
2019,03,30,02,10,7.30
2019,03,30,02,11,7.40
2019,03,30,02,12,7.40
2019,03,30,02,13,7.40
2019,03,30,02,14,7.40
2019,03,30,02,15,7.40
2019,03,30,02,16,7.30
2019,03,30,02,17,7.30
2019,03,30,02,18,7.20
2019,03,30,02,19,7.20
2019,03,30,02,20,7.10
2019,03,30,02,21,7.10
2019,03,30,02,22,7.20
2019,03,30,02,23,7.20
2019,03,30,02,24,7.30
2019,03,30,02,25,7.40
2019,03,30,02,26,7.50
2019,03,30,02,27,7.60
2019,03,30,02,28,7.60
2019,03,30,02,29,7.60
2019,03,30,02,30,7.60
2019,03,30,02,31,7.70
2019,03,30,02,32,7.70
2019,03,30,02,33,7.80
2019,03,30,02,34,7.90
2019,03,30,02,35,7.90
2019,03,30,02,36,7.90
2019,03,30,02,37,7.90
2019,03,30,02,38,7.90
2019,03,30,02,39,7.90
2019,03,30,02,40,7.90
2019,03,30,02,41,7.90
2019,03,30,02,42,7.80
2019,03,30,02,43,7.80
2019,03,30,02,44,7.80
2019,03,30,02,45,7.70
2019,03,30,02,46,7.70
2019,03,30,02,47,7.70
2019,03,30,02,48,7.70
2019,03,30,02,49,7.80
2019,03,30,02,50,7.80
2019,03,30,02,51,7.90
2019,03,30,02,52,8.00
2019,03,30,02,53,8.10
2019,03,30,02,54,8.20
2019,03,30,02,55,8.20
2019,03,30,02,56,8.20
2019,03,30,02,57,8.30
2019,03,30,02,58,8.30
2019,03,30,02,59,8.20
2019,03,30,03,00,8.20
2019,03,30,03,01,8.20
2019,03,30,03,02,8.10
2019,03,30,03,03,8.00
2019,03,30,03,04,8.00
2019,03,30,03,05,7.90
2019,03,30,03,06,7.90
2019,03,30,03,07,7.80
2019,03,30,03,08,7.70
2019,03,30,03,09,7.70
2019,03,30,03,10,7.60
2019,03,30,03,11,7.60
2019,03,30,03,12,7.50
2019,03,30,03,13,7.40
2019,03,30,03,14,7.30
2019,03,30,03,15,7.20
2019,03,30,03,16,7.20
2019,03,30,03,17,7.10
2019,03,30,03,18,7.00
2019,03,30,03,19,7.00
2019,03,30,03,20,6.90
2019,03,30,03,21,6.90
2019,03,30,03,22,6.80
2019,03,30,03,23,6.80
2019,03,30,03,24,6.70
2019,03,30,03,25,6.70
2019,03,30,03,26,6.70
2019,03,30,03,27,6.60
2019,03,30,03,28,6.60
2019,03,30,03,29,6.60
2019,03,30,03,30,6.50
2019,03,30,03,31,6.50
2019,03,30,03,32,6.40
2019,03,30,03,33,6.40
2019,03,30,03,34,6.40
2019,03,30,03,35,6.30
2019,03,30,03,36,6.30
2019,03,30,03,37,6.20
2019,03,30,03,38,6.20
2019,03,30,03,39,6.20
2019,03,30,03,40,6.20
2019,03,30,03,41,6.10
2019,03,30,03,42,6.10
2019,03,30,03,43,6.10
2019,03,30,03,44,6.00
2019,03,30,03,45,6.00
2019,03,30,03,46,5.90
2019,03,30,03,47,5.90
2019,03,30,03,48,5.90
2019,03,30,03,49,5.90
2019,03,30,03,50,5.90
2019,03,30,03,51,5.80
2019,03,30,03,52,5.80
2019,03,30,03,53,5.80
2019,03,30,03,54,5.80
2019,03,30,03,55,5.80
2019,03,30,03,56,5.80
2019,03,30,03,57,5.80
2019,03,30,03,58,5.80
2019,03,30,03,59,5.80
2019,03,30,04,00,5.80
2019,03,30,04,01,5.80
2019,03,30,04,02,5.80
2019,03,30,04,03,5.80
2019,03,30,04,04,5.80
2019,03,30,04,05,5.80
2019,03,30,04,06,5.80
2019,03,30,04,07,5.80
2019,03,30,04,08,5.70
2019,03,30,04,09,5.70
2019,03,30,04,10,5.70
2019,03,30,04,11,5.70
2019,03,30,04,12,5.70
2019,03,30,04,13,5.70
2019,03,30,04,14,5.60
2019,03,30,04,15,5.60
2019,03,30,04,16,5.60
2019,03,30,04,17,5.50
2019,03,30,04,18,5.50
2019,03,30,04,19,5.40
2019,03,30,04,20,5.40
2019,03,30,04,21,5.40
2019,03,30,04,22,5.40
2019,03,30,04,23,5.30
2019,03,30,04,24,5.30
2019,03,30,04,25,5.30
2019,03,30,04,26,5.30
2019,03,30,04,27,5.30
2019,03,30,04,28,5.20
2019,03,30,04,29,5.20
2019,03,30,04,30,5.20
2019,03,30,04,31,5.20
2019,03,30,04,32,5.20
2019,03,30,04,33,5.20
2019,03,30,04,34,5.20
2019,03,30,04,35,5.20
2019,03,30,04,36,5.20
2019,03,30,04,37,5.10
2019,03,30,04,38,5.10
2019,03,30,04,39,5.10
2019,03,30,04,40,5.10
2019,03,30,04,41,5.20
2019,03,30,04,42,5.20
2019,03,30,04,43,5.20
2019,03,30,04,44,5.20
2019,03,30,04,45,5.20
2019,03,30,04,46,5.20
2019,03,30,04,47,5.10
2019,03,30,04,48,5.10
2019,03,30,04,49,5.10
2019,03,30,04,50,5.00
2019,03,30,04,51,5.00
2019,03,30,04,52,5.00
2019,03,30,04,53,4.90
2019,03,30,04,54,4.90
2019,03,30,04,55,4.90
2019,03,30,04,56,4.90
2019,03,30,04,57,4.90
2019,03,30,04,58,4.90
2019,03,30,04,59,4.90
2019,03,30,05,00,4.80
2019,03,30,05,01,4.80
2019,03,30,05,02,4.80
2019,03,30,05,03,4.80
2019,03,30,05,04,4.80
2019,03,30,05,05,4.80
2019,03,30,05,06,4.80
2019,03,30,05,07,4.80
2019,03,30,05,08,4.70
2019,03,30,05,09,4.70
2019,03,30,05,10,4.70
2019,03,30,05,11,4.70
2019,03,30,05,12,4.70
2019,03,30,05,13,4.70
2019,03,30,05,14,4.70
2019,03,30,05,15,4.70
2019,03,30,05,16,4.70
2019,03,30,05,17,4.70
2019,03,30,05,18,4.70
2019,03,30,05,19,4.70
2019,03,30,05,20,4.70
2019,03,30,05,21,4.60
2019,03,30,05,22,4.60
2019,03,30,05,23,4.60
2019,03,30,05,24,4.60
2019,03,30,05,25,4.60
2019,03,30,05,26,4.60
2019,03,30,05,27,4.50
2019,03,30,05,28,4.50
2019,03,30,05,29,4.50
2019,03,30,05,30,4.50
2019,03,30,05,31,4.50
2019,03,30,05,32,4.40
2019,03,30,05,33,4.40
2019,03,30,05,34,4.40
2019,03,30,05,35,4.40
2019,03,30,05,36,4.40
2019,03,30,05,37,4.30
2019,03,30,05,38,4.30
2019,03,30,05,39,4.30
2019,03,30,05,40,4.30
2019,03,30,05,41,4.30
2019,03,30,05,42,4.30
2019,03,30,05,43,4.30
2019,03,30,05,44,4.30
2019,03,30,05,45,4.30
2019,03,30,05,46,4.30
2019,03,30,05,47,4.30
2019,03,30,05,48,4.30
2019,03,30,05,49,4.30
2019,03,30,05,50,4.30
2019,03,30,05,51,4.30
2019,03,30,05,52,4.30
2019,03,30,05,53,4.30
2019,03,30,05,54,4.20
2019,03,30,05,55,4.20
2019,03,30,05,56,4.20
2019,03,30,05,57,4.20
2019,03,30,05,58,4.20
2019,03,30,05,59,4.20
2019,03,30,06,00,4.20
2019,03,30,06,01,4.20
2019,03,30,06,02,4.20
2019,03,30,06,03,4.20
2019,03,30,06,04,4.10
2019,03,30,06,05,4.10
2019,03,30,06,06,4.10
2019,03,30,06,07,4.10
2019,03,30,06,08,4.10
2019,03,30,06,09,4.10
2019,03,30,06,10,4.10
2019,03,30,06,11,4.00
2019,03,30,06,12,4.00
2019,03,30,06,13,3.90
2019,03,30,06,14,3.90
2019,03,30,06,15,3.90
2019,03,30,06,16,3.80
2019,03,30,06,17,3.80
2019,03,30,06,18,3.80
2019,03,30,06,19,3.80
2019,03,30,06,20,3.80
2019,03,30,06,21,3.80
2019,03,30,06,22,3.80
2019,03,30,06,23,3.70
2019,03,30,06,24,3.70
2019,03,30,06,25,3.70
2019,03,30,06,26,3.70
2019,03,30,06,27,3.70
2019,03,30,06,28,3.70
2019,03,30,06,29,3.70
2019,03,30,06,30,3.70
2019,03,30,06,31,3.60
2019,03,30,06,32,3.60
2019,03,30,06,33,3.60
2019,03,30,06,34,3.60
2019,03,30,06,35,3.60
2019,03,30,06,36,3.60
2019,03,30,06,37,3.60
2019,03,30,06,38,3.60
2019,03,30,06,39,3.60
2019,03,30,06,40,3.50
2019,03,30,06,41,3.50
2019,03,30,06,42,3.50
2019,03,30,06,43,3.40
2019,03,30,06,44,3.40
2019,03,30,06,45,3.40
2019,03,30,06,46,3.40
2019,03,30,06,47,3.40
2019,03,30,06,48,3.40
2019,03,30,06,49,3.40
2019,03,30,06,50,3.40
2019,03,30,06,51,3.40
2019,03,30,06,52,3.40
2019,03,30,06,53,3.40
2019,03,30,06,54,3.40
2019,03,30,06,55,3.40
2019,03,30,06,56,3.40
2019,03,30,06,57,3.40
2019,03,30,06,58,3.40
2019,03,30,06,59,3.40
2019,03,30,07,00,3.40
2019,03,30,07,01,3.40
2019,03,30,07,02,3.40
2019,03,30,07,03,3.40
2019,03,30,07,04,3.40
2019,03,30,07,05,3.40
2019,03,30,07,06,3.40
2019,03,30,07,07,3.40
2019,03,30,07,08,3.40
2019,03,30,07,09,3.40
2019,03,30,07,10,3.40
2019,03,30,07,11,3.40
2019,03,30,07,12,3.40
2019,03,30,07,13,3.40
2019,03,30,07,14,3.40
2019,03,30,07,15,3.40
2019,03,30,07,16,3.40
2019,03,30,07,17,3.40
2019,03,30,07,18,3.30
2019,03,30,07,19,3.30
2019,03,30,07,20,3.30
2019,03,30,07,21,3.30
2019,03,30,07,22,3.30
2019,03,30,07,23,3.30
2019,03,30,07,24,3.30
2019,03,30,07,25,3.30
2019,03,30,07,26,3.30
2019,03,30,07,27,3.30
2019,03,30,07,28,3.30
2019,03,30,07,29,3.30
2019,03,30,07,30,3.30
2019,03,30,07,31,3.30
2019,03,30,07,32,3.40
2019,03,30,07,33,3.40
2019,03,30,07,34,3.40
2019,03,30,07,35,3.40
2019,03,30,07,36,3.40
2019,03,30,07,37,3.50
2019,03,30,07,38,3.50
2019,03,30,07,39,3.50
2019,03,30,07,40,3.60
2019,03,30,07,41,3.60
2019,03,30,07,42,3.60
2019,03,30,07,43,3.70
2019,03,30,07,44,3.70
2019,03,30,07,45,3.70
2019,03,30,07,46,3.70
2019,03,30,07,47,3.80
2019,03,30,07,48,3.80
2019,03,30,07,49,3.90
2019,03,30,07,50,3.90
2019,03,30,07,51,4.00
2019,03,30,07,52,4.10
2019,03,30,07,53,4.10
2019,03,30,07,54,4.20
2019,03,30,07,55,4.20
2019,03,30,07,56,4.30
2019,03,30,07,57,4.30
2019,03,30,07,58,4.30
2019,03,30,07,59,4.40
2019,03,30,08,00,4.50
2019,03,30,08,01,4.50
2019,03,30,08,02,4.60
2019,03,30,08,03,4.70
2019,03,30,08,04,4.70
2019,03,30,08,05,4.80
2019,03,30,08,06,4.80
2019,03,30,08,07,4.90
2019,03,30,08,08,4.90
2019,03,30,08,09,5.00
2019,03,30,08,10,5.10
2019,03,30,08,11,5.10
2019,03,30,08,12,5.20
2019,03,30,08,13,5.20
2019,03,30,08,14,5.30
2019,03,30,08,15,5.30
2019,03,30,08,16,5.20
2019,03,30,08,17,5.30
2019,03,30,08,18,5.30
2019,03,30,08,19,5.30
2019,03,30,08,20,5.40
2019,03,30,08,21,5.40
2019,03,30,08,22,5.50
2019,03,30,08,23,5.60
2019,03,30,08,24,5.70
2019,03,30,08,25,5.80
2019,03,30,08,26,5.90
2019,03,30,08,27,6.00
2019,03,30,08,28,6.10
2019,03,30,08,29,6.20
2019,03,30,08,30,6.30
2019,03,30,08,31,6.40
2019,03,30,08,32,6.50
2019,03,30,08,33,6.60
2019,03,30,08,34,6.70
2019,03,30,08,35,6.80
2019,03,30,08,36,6.80
2019,03,30,08,37,6.80
2019,03,30,08,38,6.80
2019,03,30,08,39,6.90
2019,03,30,08,40,6.90
2019,03,30,08,41,6.90
2019,03,30,08,42,7.00
2019,03,30,08,43,7.00
2019,03,30,08,44,7.10
2019,03,30,08,45,7.10
2019,03,30,08,46,7.20
2019,03,30,08,47,7.20
2019,03,30,08,48,7.30
2019,03,30,08,49,7.30
2019,03,30,08,50,7.40
2019,03,30,08,51,7.50
2019,03,30,08,52,7.60
2019,03,30,08,53,7.70
2019,03,30,08,54,7.70
2019,03,30,08,55,7.80
2019,03,30,08,56,7.90
2019,03,30,08,57,8.00
2019,03,30,08,58,8.10
2019,03,30,08,59,8.20
2019,03,30,09,00,8.20
2019,03,30,09,01,8.30
2019,03,30,09,02,8.40
2019,03,30,09,03,8.50
2019,03,30,09,04,8.50
2019,03,30,09,05,8.60
2019,03,30,09,06,8.70
2019,03,30,09,07,8.70
2019,03,30,09,08,8.80
2019,03,30,09,09,8.90
2019,03,30,09,10,8.90
2019,03,30,09,11,8.90
2019,03,30,09,12,8.80
2019,03,30,09,13,8.80
2019,03,30,09,14,8.80
2019,03,30,09,15,8.80
2019,03,30,09,16,8.80
2019,03,30,09,17,8.80
2019,03,30,09,18,8.80
2019,03,30,09,19,8.80
2019,03,30,09,20,8.80
2019,03,30,09,21,8.90
2019,03,30,09,22,8.90
2019,03,30,09,23,8.90
2019,03,30,09,24,9.00
2019,03,30,09,25,9.00
2019,03,30,09,26,9.00
2019,03,30,09,27,9.10
2019,03,30,09,28,9.20
2019,03,30,09,29,9.20
2019,03,30,09,30,9.20
2019,03,30,09,31,9.20
2019,03,30,09,32,9.30
2019,03,30,09,33,9.30
2019,03,30,09,34,9.40
2019,03,30,09,35,9.40
2019,03,30,09,36,9.50
2019,03,30,09,37,9.50
2019,03,30,09,38,9.60
2019,03,30,09,39,9.60
2019,03,30,09,40,9.70
2019,03,30,09,41,9.70
2019,03,30,09,42,9.70
2019,03,30,09,43,9.80
2019,03,30,09,44,9.80
2019,03,30,09,45,9.90
2019,03,30,09,46,9.90
2019,03,30,09,47,10.00
2019,03,30,09,48,10.10
2019,03,30,09,49,10.10
2019,03,30,09,50,10.10
2019,03,30,09,51,10.20
2019,03,30,09,52,10.20
2019,03,30,09,53,10.20
2019,03,30,09,54,10.20
2019,03,30,09,55,10.20
2019,03,30,09,56,10.20
2019,03,30,09,57,10.20
2019,03,30,09,58,10.30
2019,03,30,09,59,10.40
2019,03,30,10,00,10.40
2019,03,30,10,01,10.40
2019,03,30,10,02,10.40
2019,03,30,10,03,10.40
2019,03,30,10,04,10.40
2019,03,30,10,05,10.50
2019,03,30,10,06,10.50
2019,03,30,10,07,10.60
2019,03,30,10,08,10.70
2019,03,30,10,09,10.80
2019,03,30,10,10,10.80
2019,03,30,10,11,10.80
2019,03,30,10,12,10.90
2019,03,30,10,13,11.00
2019,03,30,10,14,11.00
2019,03,30,10,15,11.10
2019,03,30,10,16,11.20
2019,03,30,10,17,11.30
2019,03,30,10,18,11.30
2019,03,30,10,19,11.30
2019,03,30,10,20,11.40
2019,03,30,10,21,11.40
2019,03,30,10,22,11.40
2019,03,30,10,23,11.40
2019,03,30,10,24,11.30
2019,03,30,10,25,11.30
2019,03,30,10,26,11.30
2019,03,30,10,27,11.30
2019,03,30,10,28,11.40
2019,03,30,10,29,11.40
2019,03,30,10,30,11.40
2019,03,30,10,31,11.40
2019,03,30,10,32,11.40
2019,03,30,10,33,11.40
2019,03,30,10,34,11.40
2019,03,30,10,35,11.40
2019,03,30,10,36,11.50
2019,03,30,10,37,11.50
2019,03,30,10,38,11.60
2019,03,30,10,39,11.60
2019,03,30,10,40,11.60
2019,03,30,10,41,11.60
2019,03,30,10,42,11.60
2019,03,30,10,43,11.60
2019,03,30,10,44,11.70
2019,03,30,10,45,11.70
2019,03,30,10,46,11.70
2019,03,30,10,47,11.70
2019,03,30,10,48,11.70
2019,03,30,10,49,11.70
2019,03,30,10,50,11.70
2019,03,30,10,51,11.70
2019,03,30,10,52,11.70
2019,03,30,10,53,11.80
2019,03,30,10,54,11.80
2019,03,30,10,55,11.80
2019,03,30,10,56,11.80
2019,03,30,10,57,11.80
2019,03,30,10,58,11.80
2019,03,30,10,59,11.80
2019,03,30,11,00,11.80
2019,03,30,11,01,11.80
2019,03,30,11,02,11.80
2019,03,30,11,03,11.80
2019,03,30,11,04,11.70
2019,03,30,11,05,11.70
2019,03,30,11,06,11.60
2019,03,30,11,07,11.60
2019,03,30,11,08,11.60
2019,03,30,11,09,11.60
2019,03,30,11,10,11.70
2019,03,30,11,11,11.70
2019,03,30,11,12,11.70
2019,03,30,11,13,11.70
2019,03,30,11,14,11.80
2019,03,30,11,15,11.80
2019,03,30,11,16,11.80
2019,03,30,11,17,11.90
2019,03,30,11,18,11.90
2019,03,30,11,19,11.90
2019,03,30,11,20,11.90
2019,03,30,11,21,11.80
2019,03,30,11,22,11.80
2019,03,30,11,23,11.80
2019,03,30,11,24,11.80
2019,03,30,11,25,11.80
2019,03,30,11,26,11.80
2019,03,30,11,27,11.80
2019,03,30,11,28,11.70
2019,03,30,11,29,11.70
2019,03,30,11,30,11.70
2019,03,30,11,31,11.70
2019,03,30,11,32,11.70
2019,03,30,11,33,11.70
2019,03,30,11,34,11.70
2019,03,30,11,35,11.70
2019,03,30,11,36,11.80
2019,03,30,11,37,11.80
2019,03,30,11,38,11.90
2019,03,30,11,39,11.90
2019,03,30,11,40,11.90
2019,03,30,11,41,11.90
2019,03,30,11,42,11.90
2019,03,30,11,43,11.80
2019,03,30,11,44,11.70
2019,03,30,11,45,11.70
2019,03,30,11,46,11.70
2019,03,30,11,47,11.70
2019,03,30,11,48,11.70
2019,03,30,11,49,11.70
2019,03,30,11,50,11.70
2019,03,30,11,51,11.70
2019,03,30,11,52,11.70
2019,03,30,11,53,11.70
2019,03,30,11,54,11.70
2019,03,30,11,55,11.70
2019,03,30,11,56,11.70
2019,03,30,11,57,11.70
2019,03,30,11,58,11.80
2019,03,30,11,59,11.80
2019,03,30,12,00,11.90
2019,03,30,12,01,11.90
2019,03,30,12,02,11.90
2019,03,30,12,03,12.00
2019,03,30,12,04,12.10
2019,03,30,12,05,12.10
2019,03,30,12,06,12.10
2019,03,30,12,07,12.10
2019,03,30,12,08,12.10
2019,03,30,12,09,12.10
2019,03,30,12,10,12.10
2019,03,30,12,11,12.10
2019,03,30,12,12,12.10
2019,03,30,12,13,12.10
2019,03,30,12,14,12.10
2019,03,30,12,15,12.10
2019,03,30,12,16,12.10
2019,03,30,12,17,12.20
2019,03,30,12,18,12.20
2019,03,30,12,19,12.20
2019,03,30,12,20,12.20
2019,03,30,12,21,12.10
2019,03,30,12,22,12.00
2019,03,30,12,23,11.90
2019,03,30,12,24,12.00
2019,03,30,12,25,12.00
2019,03,30,12,26,12.00
2019,03,30,12,27,12.10
2019,03,30,12,28,12.10
2019,03,30,12,29,12.20
2019,03,30,12,30,12.30
2019,03,30,12,31,12.20
2019,03,30,12,32,12.20
2019,03,30,12,33,12.10
2019,03,30,12,34,12.00
2019,03,30,12,35,11.90
2019,03,30,12,36,11.90
2019,03,30,12,37,11.90
2019,03,30,12,38,11.90
2019,03,30,12,39,11.90
2019,03,30,12,40,11.90
2019,03,30,12,41,11.90
2019,03,30,12,42,11.90
2019,03,30,12,43,12.00
2019,03,30,12,44,12.10
2019,03,30,12,45,12.10
2019,03,30,12,46,12.20
2019,03,30,12,47,12.20
2019,03,30,12,48,12.20
2019,03,30,12,49,12.20
2019,03,30,12,50,12.10
2019,03,30,12,51,12.00
2019,03,30,12,52,11.90
2019,03,30,12,53,11.90
2019,03,30,12,54,11.80
2019,03,30,12,55,11.80
2019,03,30,12,56,11.90
2019,03,30,12,57,11.90
2019,03,30,12,58,12.00
2019,03,30,12,59,12.10
2019,03,30,13,00,12.20
2019,03,30,13,01,12.30
2019,03,30,13,02,12.30
2019,03,30,13,03,12.30
2019,03,30,13,04,12.30
2019,03,30,13,05,12.20
2019,03,30,13,06,12.20
2019,03,30,13,07,12.20
2019,03,30,13,08,12.10
2019,03,30,13,09,12.10
2019,03,30,13,10,12.00
2019,03,30,13,11,12.00
2019,03,30,13,12,11.90
2019,03,30,13,13,11.90
2019,03,30,13,14,11.90
2019,03,30,13,15,11.90
2019,03,30,13,16,12.00
2019,03,30,13,17,12.10
2019,03,30,13,18,12.10
2019,03,30,13,19,12.10
2019,03,30,13,20,12.10
2019,03,30,13,21,12.10
2019,03,30,13,22,12.10
2019,03,30,13,23,12.10
2019,03,30,13,24,12.10
2019,03,30,13,25,12.10
2019,03,30,13,26,12.20
2019,03,30,13,27,12.20
2019,03,30,13,28,12.20
2019,03,30,13,29,12.20
2019,03,30,13,30,12.20
2019,03,30,13,31,12.20
2019,03,30,13,32,12.20
2019,03,30,13,33,12.20
2019,03,30,13,34,12.20
2019,03,30,13,35,12.10
2019,03,30,13,36,12.10
2019,03,30,13,37,12.10
2019,03,30,13,38,12.10
2019,03,30,13,39,12.10
2019,03,30,13,40,12.10
2019,03,30,13,41,12.20
2019,03,30,13,42,12.20
2019,03,30,13,43,12.30
2019,03,30,13,44,12.30
2019,03,30,13,45,12.30
2019,03,30,13,46,12.40
2019,03,30,13,47,12.40
2019,03,30,13,48,12.40
2019,03,30,13,49,12.50
2019,03,30,13,50,12.50
2019,03,30,13,51,12.60
2019,03,30,13,52,12.60
2019,03,30,13,53,12.70
2019,03,30,13,54,12.70
2019,03,30,13,55,12.80
2019,03,30,13,56,12.90
2019,03,30,13,57,13.00
2019,03,30,13,58,13.00
2019,03,30,13,59,13.00
2019,03,30,14,00,13.00
2019,03,30,14,01,12.90
2019,03,30,14,02,12.90
2019,03,30,14,03,12.90
2019,03,30,14,04,12.80
2019,03,30,14,05,12.80
2019,03,30,14,06,12.90
2019,03,30,14,07,12.90
2019,03,30,14,08,12.90
2019,03,30,14,09,13.00
2019,03,30,14,10,13.00
2019,03,30,14,11,13.10
2019,03,30,14,12,13.00
2019,03,30,14,13,12.90
2019,03,30,14,14,12.90
2019,03,30,14,15,12.90
2019,03,30,14,16,12.90
2019,03,30,14,17,12.90
2019,03,30,14,18,13.00
2019,03,30,14,19,13.00
2019,03,30,14,20,13.00
2019,03,30,14,21,13.00
2019,03,30,14,22,13.00
2019,03,30,14,23,13.00
2019,03,30,14,24,13.00
2019,03,30,14,25,13.10
2019,03,30,14,26,13.10
2019,03,30,14,27,13.20
2019,03,30,14,28,13.20
2019,03,30,14,29,13.20
2019,03,30,14,30,13.20
2019,03,30,14,31,13.10
2019,03,30,14,32,13.10
2019,03,30,14,33,13.10
2019,03,30,14,34,13.10
2019,03,30,14,35,13.10
2019,03,30,14,36,13.10
2019,03,30,14,37,13.10
2019,03,30,14,38,13.20
2019,03,30,14,39,13.30
2019,03,30,14,40,13.40
2019,03,30,14,41,13.50
2019,03,30,14,42,13.60
2019,03,30,14,43,13.60
2019,03,30,14,44,13.70
2019,03,30,14,45,13.70
2019,03,30,14,46,13.80
2019,03,30,14,47,13.80
2019,03,30,14,48,13.80
2019,03,30,14,49,13.80
2019,03,30,14,50,13.80
2019,03,30,14,51,13.80
2019,03,30,14,52,13.80
2019,03,30,14,53,13.90
2019,03,30,14,54,13.90
2019,03,30,14,55,14.00
2019,03,30,14,56,14.00
2019,03,30,14,57,14.00
2019,03,30,14,58,14.00
2019,03,30,14,59,13.90
2019,03,30,15,00,13.90
2019,03,30,15,01,13.90
2019,03,30,15,02,14.00
2019,03,30,15,03,14.00
2019,03,30,15,04,14.10
2019,03,30,15,05,14.10
2019,03,30,15,06,14.00
2019,03,30,15,07,14.00
2019,03,30,15,08,13.90
2019,03,30,15,09,13.90
2019,03,30,15,10,13.80
2019,03,30,15,11,13.70
2019,03,30,15,12,13.70
2019,03,30,15,13,13.70
2019,03,30,15,14,13.70
2019,03,30,15,15,13.70
2019,03,30,15,16,13.80
2019,03,30,15,17,13.80
2019,03,30,15,18,13.90
2019,03,30,15,19,13.80
2019,03,30,15,20,13.80
2019,03,30,15,21,13.80
2019,03,30,15,22,13.80
2019,03,30,15,23,13.90
2019,03,30,15,24,13.90
2019,03,30,15,25,14.00
2019,03,30,15,26,14.00
2019,03,30,15,27,14.00
2019,03,30,15,28,14.10
2019,03,30,15,29,14.10
2019,03,30,15,30,14.10
2019,03,30,15,31,14.00
2019,03,30,15,32,14.00
2019,03,30,15,33,13.90
2019,03,30,15,34,14.00
2019,03,30,15,35,14.00
2019,03,30,15,36,14.10
2019,03,30,15,37,14.10
2019,03,30,15,38,14.20
2019,03,30,15,39,14.20
2019,03,30,15,40,14.30
2019,03,30,15,41,14.30
2019,03,30,15,42,14.30
2019,03,30,15,43,14.20
2019,03,30,15,44,14.20
2019,03,30,15,45,14.20
2019,03,30,15,46,14.20
2019,03,30,15,47,14.20
2019,03,30,15,48,14.20
2019,03,30,15,49,14.20
2019,03,30,15,50,14.20
2019,03,30,15,51,14.30
2019,03,30,15,52,14.30
2019,03,30,15,53,14.20
2019,03,30,15,54,14.20
2019,03,30,15,55,14.20
2019,03,30,15,56,14.20
2019,03,30,15,57,14.20
2019,03,30,15,58,14.20
2019,03,30,15,59,14.20
2019,03,30,16,00,14.20
2019,03,30,16,01,14.30
2019,03,30,16,02,14.30
2019,03,30,16,03,14.40
2019,03,30,16,04,14.40
2019,03,30,16,05,14.40
2019,03,30,16,06,14.50
2019,03,30,16,07,14.60
2019,03,30,16,08,14.70
2019,03,30,16,09,14.90
2019,03,30,16,10,14.90
2019,03,30,16,11,15.00
2019,03,30,16,12,15.00
2019,03,30,16,13,15.10
2019,03,30,16,14,15.10
2019,03,30,16,15,15.10
2019,03,30,16,16,15.20
2019,03,30,16,17,15.20
2019,03,30,16,18,15.20
2019,03,30,16,19,15.20
2019,03,30,16,20,15.20
2019,03,30,16,21,15.10
2019,03,30,16,22,15.10
2019,03,30,16,23,15.10
2019,03,30,16,24,15.10
2019,03,30,16,25,15.10
2019,03,30,16,26,15.10
2019,03,30,16,27,15.20
2019,03,30,16,28,15.20
2019,03,30,16,29,15.20
2019,03,30,16,30,15.20
2019,03,30,16,31,15.30
2019,03,30,16,32,15.30
2019,03,30,16,33,15.30
2019,03,30,16,34,15.30
2019,03,30,16,35,15.30
2019,03,30,16,36,15.30
2019,03,30,16,37,15.30
2019,03,30,16,38,15.30
2019,03,30,16,39,15.30
2019,03,30,16,40,15.30
2019,03,30,16,41,15.30
2019,03,30,16,42,15.40
2019,03,30,16,43,15.40
2019,03,30,16,44,15.40
2019,03,30,16,45,15.40
2019,03,30,16,46,15.40
2019,03,30,16,47,15.40
2019,03,30,16,48,15.40
2019,03,30,16,49,15.40
2019,03,30,16,50,15.40
2019,03,30,16,51,15.40
2019,03,30,16,52,15.40
2019,03,30,16,53,15.40
2019,03,30,16,54,15.40
2019,03,30,16,55,15.40
2019,03,30,16,56,15.50
2019,03,30,16,57,15.50
2019,03,30,16,58,15.60
2019,03,30,16,59,15.60
2019,03,30,17,00,15.60
2019,03,30,17,01,15.60
2019,03,30,17,02,15.50
2019,03,30,17,03,15.40
2019,03,30,17,04,15.40
2019,03,30,17,05,15.40
2019,03,30,17,06,15.50
2019,03,30,17,07,15.50
2019,03,30,17,08,15.60
2019,03,30,17,09,15.60
2019,03,30,17,10,15.60
2019,03,30,17,11,15.60
2019,03,30,17,12,15.60
2019,03,30,17,13,15.60
2019,03,30,17,14,15.60
2019,03,30,17,15,15.50
2019,03,30,17,16,15.50
2019,03,30,17,17,15.50
2019,03,30,17,18,15.40
2019,03,30,17,19,15.50
2019,03,30,17,20,15.50
2019,03,30,17,21,15.60
2019,03,30,17,22,15.70
2019,03,30,17,23,15.80
2019,03,30,17,24,15.80
2019,03,30,17,25,15.90
2019,03,30,17,26,15.90
2019,03,30,17,27,15.90
2019,03,30,17,28,15.80
2019,03,30,17,29,15.80
2019,03,30,17,30,15.80
2019,03,30,17,31,15.80
2019,03,30,17,32,15.80
2019,03,30,17,33,15.80
2019,03,30,17,34,15.80
2019,03,30,17,35,15.70
2019,03,30,17,36,15.70
2019,03,30,17,37,15.70
2019,03,30,17,38,15.80
2019,03,30,17,39,15.80
2019,03,30,17,40,15.80
2019,03,30,17,41,15.90
2019,03,30,17,42,15.90
2019,03,30,17,43,15.90
2019,03,30,17,44,15.90